Time,TemperatureF,DewpointF,PressureIn,WindDirection,WindDirectionDegrees,WindSpeedMPH,WindSpeedGustMPH,Humidity,HourlyPrecipIn,Conditions,Clouds,dailyrainin,SoftwareType,DateUTC
2013-01-02 00:01:00,18.3,13.2,30.11,West,281,6.0,6.0,80,0.00,,,0.00,Wunderground v.1.15,2013-01-02 05:01:00,
2013-01-02 00:02:00,18.2,13.1,30.11,West,263,5.0,6.0,80,0.00,,,0.00,Wunderground v.1.15,2013-01-02 05:02:00,
2013-01-02 00:03:00,18.1,13.0,30.11,West,274,5.0,7.0,80,0.00,,,0.00,Wunderground v.1.15,2013-01-02 05:03:00,
2013-01-02 00:04:00,18.2,13.1,30.11,West,271,5.0,7.0,80,0.00,,,0.00,Wunderground v.1.15,2013-01-02 05:04:00,
2013-01-02 00:07:00,18.1,13.0,30.11,West,274,5.0,7.0,80,0.00,,,0.00,Wunderground v.1.15,2013-01-02 05:07:00,
2013-01-02 00:11:00,18.0,12.9,30.11,West,278,5.0,7.0,80,0.00,,,0.00,Wunderground v.1.15,2013-01-02 05:11:00,
2013-01-02 00:13:00,18.0,12.9,30.11,West,275,5.0,7.0,80,0.00,,,0.00,Wunderground v.1.15,2013-01-02 05:13:00,
2013-01-02 00:16:00,17.9,12.8,30.11,West,281,6.0,7.0,80,0.00,,,0.00,Wunderground v.1.15,2013-01-02 05:16:00,
2013-01-02 00:19:00,17.9,13.1,30.11,West,271,6.0,7.0,81,0.00,,,0.00,Wunderground v.1.15,2013-01-02 05:19:00,
2013-01-02 00:20:00,17.9,13.1,30.11,West,262,6.0,6.0,81,0.00,,,0.00,Wunderground v.1.15,2013-01-02 05:20:00,
2013-01-02 00:21:00,17.9,13.1,30.11,West,268,6.0,6.0,81,0.00,,,0.00,Wunderground v.1.15,2013-01-02 05:21:00,
2013-01-02 00:24:00,17.9,13.1,30.11,West,277,5.0,6.0,81,0.00,,,0.00,Wunderground v.1.15,2013-01-02 05:24:00,
2013-01-02 00:26:00,17.9,13.1,30.11,West,264,5.0,6.0,81,0.00,,,0.00,Wunderground v.1.15,2013-01-02 05:26:00,
2013-01-02 00:29:00,17.8,13.0,30.11,WNW,286,5.0,6.0,81,0.00,,,0.00,Wunderground v.1.15,2013-01-02 05:29:00,
2013-01-02 00:30:00,17.7,12.9,30.11,West,276,5.0,6.0,81,0.00,,,0.00,Wunderground v.1.15,2013-01-02 05:30:00,
2013-01-02 00:33:00,17.7,12.9,30.11,West,263,5.0,6.0,81,0.00,,,0.00,Wunderground v.1.15,2013-01-02 05:33:00,
2013-01-02 00:34:00,17.7,12.9,30.11,West,268,5.0,6.0,81,0.00,,,0.00,Wunderground v.1.15,2013-01-02 05:34:00,
2013-01-02 00:35:00,17.7,12.9,30.11,West,264,5.0,6.0,81,0.00,,,0.00,Wunderground v.1.15,2013-01-02 05:35:00,
2013-01-02 00:39:00,17.6,12.8,30.11,WNW,282,4.0,6.0,81,0.00,,,0.00,Wunderground v.1.15,2013-01-02 05:39:00,
2013-01-02 00:40:00,17.6,12.8,30.11,West,270,4.0,5.0,81,0.00,,,0.00,Wunderground v.1.15,2013-01-02 05:40:00,
2013-01-02 00:41:00,17.5,12.7,30.11,West,261,4.0,5.0,81,0.00,,,0.00,Wunderground v.1.15,2013-01-02 05:41:00,
2013-01-02 00:44:00,17.4,12.6,30.10,West,266,4.0,5.0,81,0.00,,,0.00,Wunderground v.1.15,2013-01-02 05:44:00,
2013-01-02 00:48:00,17.4,12.6,30.10,West,271,5.0,6.0,81,0.00,,,0.00,Wunderground v.1.15,2013-01-02 05:48:00,
2013-01-02 00:49:00,17.4,12.8,30.11,West,276,5.0,7.0,82,0.00,,,0.00,Wunderground v.1.15,2013-01-02 05:49:00,
2013-01-02 00:52:00,17.4,12.8,30.11,West,261,6.0,7.0,82,0.00,,,0.00,Wunderground v.1.15,2013-01-02 05:52:00,
2013-01-02 00:54:00,17.4,12.8,30.11,West,268,5.0,7.0,82,0.00,,,0.00,Wunderground v.1.15,2013-01-02 05:54:00,
2013-01-02 00:57:00,17.4,12.8,30.11,West,270,5.0,7.0,82,0.00,,,0.00,Wunderground v.1.15,2013-01-02 05:57:00,
2013-01-02 00:58:00,17.4,12.8,30.11,West,266,5.0,7.0,82,0.00,,,0.00,Wunderground v.1.15,2013-01-02 05:58:00,
2013-01-02 01:01:00,17.4,12.8,30.11,West,273,5.0,6.0,82,0.00,,,0.00,Wunderground v.1.15,2013-01-02 06:01:00,
2013-01-02 01:02:00,17.4,12.8,30.11,West,280,5.0,6.0,82,0.00,,,0.00,Wunderground v.1.15,2013-01-02 06:02:00,
2013-01-02 01:03:00,17.4,12.8,30.11,WSW,252,5.0,6.0,82,0.00,,,0.00,Wunderground v.1.15,2013-01-02 06:03:00,
2013-01-02 01:07:00,17.5,13.2,30.11,West,276,6.0,7.0,83,0.00,,,0.00,Wunderground v.1.15,2013-01-02 06:07:00,
2013-01-02 01:08:00,17.6,13.3,30.11,West,268,6.0,7.0,83,0.00,,,0.00,Wunderground v.1.15,2013-01-02 06:08:00,
2013-01-02 01:12:00,17.6,13.3,30.10,West,265,6.0,6.0,83,0.00,,,0.00,Wunderground v.1.15,2013-01-02 06:12:00,
2013-01-02 01:15:00,17.5,13.2,30.10,West,269,6.0,6.0,83,0.00,,,0.00,Wunderground v.1.15,2013-01-02 06:15:00,
2013-01-02 01:17:00,17.5,13.2,30.11,West,276,5.0,6.0,83,0.00,,,0.00,Wunderground v.1.15,2013-01-02 06:17:00,
2013-01-02 01:19:00,17.5,13.2,30.11,WSW,255,5.0,7.0,83,0.00,,,0.00,Wunderground v.1.15,2013-01-02 06:19:00,
2013-01-02 01:21:00,17.5,13.2,30.10,West,260,6.0,6.0,83,0.00,,,0.00,Wunderground v.1.15,2013-01-02 06:21:00,
2013-01-02 01:23:00,17.4,13.1,30.11,West,268,6.0,8.0,83,0.00,,,0.00,Wunderground v.1.15,2013-01-02 06:23:00,
2013-01-02 01:25:00,17.4,13.1,30.10,West,269,6.0,8.0,83,0.00,,,0.00,Wunderground v.1.15,2013-01-02 06:25:00,
2013-01-02 01:26:00,17.4,13.1,30.10,West,266,6.0,8.0,83,0.00,,,0.00,Wunderground v.1.15,2013-01-02 06:26:00,
2013-01-02 01:28:00,17.4,13.1,30.10,West,269,6.0,8.0,83,0.00,,,0.00,Wunderground v.1.15,2013-01-02 06:28:00,
2013-01-02 01:31:00,17.4,13.1,30.11,West,268,6.0,7.0,83,0.00,,,0.00,Wunderground v.1.15,2013-01-02 06:31:00,
2013-01-02 01:32:00,17.5,13.2,30.11,West,273,6.0,7.0,83,0.00,,,0.00,Wunderground v.1.15,2013-01-02 06:32:00,
2013-01-02 01:35:00,17.4,13.1,30.10,West,277,5.0,7.0,83,0.00,,,0.00,Wunderground v.1.15,2013-01-02 06:35:00,
2013-01-02 01:36:00,17.4,13.1,30.10,West,277,5.0,7.0,83,0.00,,,0.00,Wunderground v.1.15,2013-01-02 06:36:00,
2013-01-02 01:39:00,17.4,13.1,30.10,WNW,284,5.0,7.0,83,0.00,,,0.00,Wunderground v.1.15,2013-01-02 06:39:00,
2013-01-02 01:40:00,17.4,12.8,30.10,West,270,5.0,6.0,82,0.00,,,0.00,Wunderground v.1.15,2013-01-02 06:40:00,
2013-01-02 01:43:00,17.3,12.7,30.10,WNW,284,4.0,6.0,82,0.00,,,0.00,Wunderground v.1.15,2013-01-02 06:43:00,
2013-01-02 01:45:00,17.3,12.7,30.10,West,276,5.0,6.0,82,0.00,,,0.00,Wunderground v.1.15,2013-01-02 06:45:00,
2013-01-02 01:49:00,17.2,12.6,30.10,West,277,5.0,6.0,82,0.00,,,0.00,Wunderground v.1.15,2013-01-02 06:49:00,
2013-01-02 01:53:00,17.1,12.6,30.10,West,276,5.0,7.0,82,0.00,,,0.00,Wunderground v.1.15,2013-01-02 06:53:00,
2013-01-02 01:56:00,17.1,12.6,30.11,West,270,5.0,7.0,82,0.00,,,0.00,Wunderground v.1.15,2013-01-02 06:56:00,
2013-01-02 01:58:00,17.1,12.6,30.11,West,269,4.0,7.0,82,0.00,,,0.00,Wunderground v.1.15,2013-01-02 06:58:00,
2013-01-02 02:00:00,17.0,12.5,30.11,WNW,286,4.0,5.0,82,0.00,,,0.00,Wunderground v.1.15,2013-01-02 07:00:00,
2013-01-02 02:01:00,17.0,12.5,30.10,West,276,5.0,5.0,82,0.00,,,0.00,Wunderground v.1.15,2013-01-02 07:01:00,
2013-01-02 02:03:00,17.0,12.5,30.10,WNW,282,4.0,5.0,82,0.00,,,0.00,Wunderground v.1.15,2013-01-02 07:03:00,
2013-01-02 02:06:00,16.8,12.3,30.10,West,275,4.0,5.0,82,0.00,,,0.00,Wunderground v.1.15,2013-01-02 07:06:00,
2013-01-02 02:07:00,16.8,12.3,30.10,West,281,4.0,5.0,82,0.00,,,0.00,Wunderground v.1.15,2013-01-02 07:07:00,
2013-01-02 02:11:00,16.7,12.2,30.11,West,273,4.0,4.0,82,0.00,,,0.00,Wunderground v.1.15,2013-01-02 07:11:00,
2013-01-02 02:12:00,16.7,12.2,30.11,West,271,4.0,5.0,82,0.00,,,0.00,Wunderground v.1.15,2013-01-02 07:12:00,
2013-01-02 02:16:00,16.7,12.2,30.11,West,264,4.0,7.0,82,0.00,,,0.00,Wunderground v.1.15,2013-01-02 07:16:00,
2013-01-02 02:17:00,16.7,12.4,30.11,West,276,5.0,7.0,83,0.00,,,0.00,Wunderground v.1.15,2013-01-02 07:17:00,
2013-01-02 02:19:00,16.8,12.5,30.11,SW,227,5.0,7.0,83,0.00,,,0.00,Wunderground v.1.15,2013-01-02 07:19:00,
2013-01-02 02:20:00,16.8,12.5,30.11,West,277,5.0,5.0,83,0.00,,,0.00,Wunderground v.1.15,2013-01-02 07:20:00,
2013-01-02 02:22:00,16.9,12.6,30.12,West,268,6.0,7.0,83,0.00,,,0.00,Wunderground v.1.15,2013-01-02 07:22:00,
2013-01-02 02:24:00,16.9,12.6,30.12,West,273,6.0,7.0,83,0.00,,,0.00,Wunderground v.1.15,2013-01-02 07:24:00,
2013-01-02 02:26:00,17.0,12.7,30.11,West,274,6.0,7.0,83,0.00,,,0.00,Wunderground v.1.15,2013-01-02 07:26:00,
2013-01-02 02:29:00,17.1,12.8,30.11,West,271,6.0,7.0,83,0.00,,,0.00,Wunderground v.1.15,2013-01-02 07:29:00,
2013-01-02 02:30:00,17.1,12.8,30.11,WSW,252,5.0,5.0,83,0.00,,,0.00,Wunderground v.1.15,2013-01-02 07:30:00,
2013-01-02 02:31:00,17.0,12.7,30.11,WSW,257,5.0,5.0,83,0.00,,,0.00,Wunderground v.1.15,2013-01-02 07:31:00,
2013-01-02 02:33:00,17.0,12.7,30.11,West,262,5.0,6.0,83,0.00,,,0.00,Wunderground v.1.15,2013-01-02 07:33:00,
2013-01-02 02:34:00,17.0,12.7,30.11,West,275,5.0,6.0,83,0.00,,,0.00,Wunderground v.1.15,2013-01-02 07:34:00,
2013-01-02 02:36:00,16.9,12.6,30.11,West,263,5.0,6.0,83,0.00,,,0.00,Wunderground v.1.15,2013-01-02 07:36:00,
2013-01-02 02:38:00,16.8,12.5,30.11,WNW,288,5.0,6.0,83,0.00,,,0.00,Wunderground v.1.15,2013-01-02 07:38:00,
2013-01-02 02:39:00,16.8,12.5,30.11,West,273,5.0,6.0,83,0.00,,,0.00,Wunderground v.1.15,2013-01-02 07:39:00,
2013-01-02 02:41:00,16.8,12.5,30.11,WSW,255,5.0,5.0,83,0.00,,,0.00,Wunderground v.1.15,2013-01-02 07:41:00,
2013-01-02 02:45:00,16.8,12.5,30.11,West,271,5.0,6.0,83,0.00,,,0.00,Wunderground v.1.15,2013-01-02 07:45:00,
2013-01-02 02:48:00,16.7,12.4,30.11,West,277,5.0,6.0,83,0.00,,,0.00,Wunderground v.1.15,2013-01-02 07:48:00,
2013-01-02 02:50:00,16.7,12.4,30.11,West,270,5.0,6.0,83,0.00,,,0.00,Wunderground v.1.15,2013-01-02 07:50:00,
2013-01-02 02:52:00,16.7,12.4,30.11,West,268,5.0,6.0,83,0.00,,,0.00,Wunderground v.1.15,2013-01-02 07:52:00,
2013-01-02 02:53:00,16.7,12.4,30.11,West,270,5.0,6.0,83,0.00,,,0.00,Wunderground v.1.15,2013-01-02 07:53:00,
2013-01-02 02:54:00,16.7,12.4,30.11,West,266,5.0,8.0,83,0.00,,,0.00,Wunderground v.1.15,2013-01-02 07:54:00,
2013-01-02 02:58:00,16.7,12.4,30.12,West,273,5.0,8.0,83,0.00,,,0.00,Wunderground v.1.15,2013-01-02 07:58:00,
2013-01-02 03:01:00,16.7,12.4,30.11,West,277,5.0,5.0,83,0.00,,,0.00,Wunderground v.1.15,2013-01-02 08:01:00,
2013-01-02 03:05:00,16.6,12.3,30.12,West,278,5.0,6.0,83,0.00,,,0.00,Wunderground v.1.15,2013-01-02 08:05:00,
2013-01-02 03:07:00,16.6,12.3,30.12,West,270,5.0,6.0,83,0.00,,,0.00,Wunderground v.1.15,2013-01-02 08:07:00,
2013-01-02 03:10:00,16.6,12.6,30.12,West,275,4.0,6.0,84,0.00,,,0.00,Wunderground v.1.15,2013-01-02 08:10:00,
2013-01-02 03:11:00,16.6,12.3,30.12,West,274,4.0,6.0,83,0.00,,,0.00,Wunderground v.1.15,2013-01-02 08:11:00,
2013-01-02 03:12:00,16.6,12.3,30.12,WNW,286,4.0,7.0,83,0.00,,,0.00,Wunderground v.1.15,2013-01-02 08:12:00,
2013-01-02 03:15:00,16.6,12.3,30.12,West,275,5.0,7.0,83,0.00,,,0.00,Wunderground v.1.15,2013-01-02 08:15:00,
2013-01-02 03:17:00,16.6,12.3,30.12,West,281,5.0,7.0,83,0.00,,,0.00,Wunderground v.1.15,2013-01-02 08:17:00,
2013-01-02 03:20:00,16.6,12.3,30.12,West,270,5.0,7.0,83,0.00,,,0.00,Wunderground v.1.15,2013-01-02 08:20:00,
2013-01-02 03:22:00,16.6,12.3,30.12,West,259,5.0,7.0,83,0.00,,,0.00,Wunderground v.1.15,2013-01-02 08:22:00,
2013-01-02 03:25:00,16.6,12.3,30.12,West,268,5.0,7.0,83,0.00,,,0.00,Wunderground v.1.15,2013-01-02 08:25:00,
2013-01-02 03:26:00,16.6,12.6,30.12,West,261,5.0,7.0,84,0.00,,,0.00,Wunderground v.1.15,2013-01-02 08:26:00,
2013-01-02 03:29:00,16.7,12.4,30.12,West,274,5.0,7.0,83,0.00,,,0.00,Wunderground v.1.15,2013-01-02 08:29:00,
2013-01-02 03:30:00,16.7,12.4,30.12,WNW,287,5.0,8.0,83,0.00,,,0.00,Wunderground v.1.15,2013-01-02 08:30:00,
2013-01-02 03:34:00,16.7,12.4,30.12,West,266,5.0,8.0,83,0.00,,,0.00,Wunderground v.1.15,2013-01-02 08:34:00,
2013-01-02 03:35:00,16.6,12.3,30.12,West,281,5.0,8.0,83,0.00,,,0.00,Wunderground v.1.15,2013-01-02 08:35:00,
2013-01-02 03:39:00,16.7,12.4,30.12,West,277,5.0,7.0,83,0.00,,,0.00,Wunderground v.1.15,2013-01-02 08:39:00,
2013-01-02 03:40:00,16.7,12.4,30.12,West,281,5.0,7.0,83,0.00,,,0.00,Wunderground v.1.15,2013-01-02 08:40:00,
2013-01-02 03:42:00,16.7,12.4,30.12,West,261,5.0,7.0,83,0.00,,,0.00,Wunderground v.1.15,2013-01-02 08:42:00,
2013-01-02 03:43:00,16.7,12.4,30.12,West,277,5.0,7.0,83,0.00,,,0.00,Wunderground v.1.15,2013-01-02 08:43:00,
2013-01-02 03:44:00,16.7,12.4,30.12,West,280,5.0,7.0,83,0.00,,,0.00,Wunderground v.1.15,2013-01-02 08:44:00,
2013-01-02 03:45:00,16.7,12.4,30.12,West,276,5.0,7.0,83,0.00,,,0.00,Wunderground v.1.15,2013-01-02 08:45:00,
2013-01-02 03:47:00,16.7,12.4,30.13,West,280,5.0,7.0,83,0.00,,,0.00,Wunderground v.1.15,2013-01-02 08:47:00,
2013-01-02 03:50:00,16.7,12.4,30.13,West,281,5.0,6.0,83,0.00,,,0.00,Wunderground v.1.15,2013-01-02 08:50:00,
2013-01-02 03:52:00,16.7,12.4,30.13,WNW,284,5.0,6.0,83,0.00,,,0.00,Wunderground v.1.15,2013-01-02 08:52:00,
2013-01-02 03:55:00,16.7,12.4,30.13,West,281,6.0,9.0,83,0.00,,,0.00,Wunderground v.1.15,2013-01-02 08:55:00,
2013-01-02 03:57:00,16.7,12.4,30.13,WSW,256,6.0,9.0,83,0.00,,,0.00,Wunderground v.1.15,2013-01-02 08:57:00,
2013-01-02 03:58:00,16.8,12.5,30.14,West,275,6.0,9.0,83,0.00,,,0.00,Wunderground v.1.15,2013-01-02 08:58:00,
2013-01-02 03:59:00,16.8,12.5,30.14,WSW,245,6.0,9.0,83,0.00,,,0.00,Wunderground v.1.15,2013-01-02 08:59:00,
2013-01-02 04:01:00,16.9,12.6,30.14,WNW,282,6.0,6.0,83,0.00,,,0.00,Wunderground v.1.15,2013-01-02 09:01:00,
2013-01-02 04:03:00,16.9,12.6,30.14,West,281,6.0,9.0,83,0.00,,,0.00,Wunderground v.1.15,2013-01-02 09:03:00,
2013-01-02 04:05:00,17.0,12.7,30.13,West,274,6.0,9.0,83,0.00,,,0.00,Wunderground v.1.15,2013-01-02 09:05:00,
2013-01-02 04:06:00,17.0,12.5,30.13,West,276,6.0,9.0,82,0.00,,,0.00,Wunderground v.1.15,2013-01-02 09:06:00,
2013-01-02 15:25:00,25.2,18.1,30.19,West,273,4.0,4.0,74,0.00,,,0.00,Wunderground v.1.15,2013-01-02 20:25:00,
2013-01-02 15:26:00,25.2,18.1,30.19,West,272,4.0,7.0,74,0.00,,,0.00,Wunderground v.1.15,2013-01-02 20:26:00,
2013-01-02 15:27:00,25.2,18.1,30.19,WSW,258,4.0,8.0,74,0.00,,,0.00,Wunderground v.1.15,2013-01-02 20:27:00,
2013-01-02 15:30:00,25.3,18.5,30.19,West,277,4.0,8.0,75,0.00,,,0.00,Wunderground v.1.15,2013-01-02 20:30:00,
2013-01-02 15:33:00,25.3,18.5,30.19,WNW,303,4.0,8.0,75,0.00,,,0.00,Wunderground v.1.15,2013-01-02 20:33:00,
2013-01-02 15:35:00,25.4,18.6,30.19,West,271,4.0,5.0,75,0.00,,,0.00,Wunderground v.1.15,2013-01-02 20:35:00,
2013-01-02 15:36:00,25.4,18.6,30.19,WSW,253,4.0,9.0,75,0.00,,,0.00,Wunderground v.1.15,2013-01-02 20:36:00,
2013-01-02 15:37:00,25.4,18.6,30.19,West,264,4.0,9.0,75,0.00,,,0.00,Wunderground v.1.15,2013-01-02 20:37:00,
2013-01-02 15:41:00,25.3,18.2,30.19,West,270,5.0,11.0,74,0.00,,,0.00,Wunderground v.1.15,2013-01-02 20:41:00,
2013-01-02 15:43:00,25.3,18.5,30.19,WNW,283,6.0,11.0,75,0.00,,,0.00,Wunderground v.1.15,2013-01-02 20:43:00,
2013-01-02 15:45:00,25.3,18.5,30.19,West,277,6.0,6.0,75,0.00,,,0.00,Wunderground v.1.15,2013-01-02 20:45:00,
2013-01-02 15:47:00,25.4,18.6,30.19,West,275,6.0,6.0,75,0.00,,,0.00,Wunderground v.1.15,2013-01-02 20:47:00,
2013-01-02 15:48:00,25.3,18.2,30.19,West,277,6.0,6.0,74,0.00,,,0.00,Wunderground v.1.15,2013-01-02 20:48:00,
2013-01-02 15:49:00,25.3,18.2,30.19,WNW,299,5.0,6.0,74,0.00,,,0.00,Wunderground v.1.15,2013-01-02 20:49:00,
2013-01-02 15:52:00,25.4,18.3,30.19,WNW,297,4.0,6.0,74,0.00,,,0.00,Wunderground v.1.15,2013-01-02 20:52:00,
2013-01-02 15:53:00,25.4,18.3,30.19,WNW,288,4.0,6.0,74,0.00,,,0.00,Wunderground v.1.15,2013-01-02 20:53:00,
2013-01-02 15:55:00,25.4,18.3,30.19,West,268,3.0,3.0,74,0.00,,,0.00,Wunderground v.1.15,2013-01-02 20:55:00,
2013-01-02 15:58:00,25.4,18.3,30.19,WNW,296,2.0,4.0,74,0.00,,,0.00,Wunderground v.1.15,2013-01-02 20:58:00,
2013-01-02 15:59:00,25.4,18.3,30.19,WNW,293,2.0,4.0,74,0.00,,,0.00,Wunderground v.1.15,2013-01-02 20:59:00,
2013-01-02 16:02:00,25.4,18.3,30.19,West,274,2.0,4.0,74,0.00,,,0.00,Wunderground v.1.15,2013-01-02 21:02:00,
2013-01-02 16:03:00,25.4,18.6,30.19,West,259,2.0,4.0,75,0.00,,,0.00,Wunderground v.1.15,2013-01-02 21:03:00,
2013-01-02 16:04:00,25.4,18.3,30.19,West,261,2.0,4.0,74,0.00,,,0.00,Wunderground v.1.15,2013-01-02 21:04:00,
2013-01-02 16:07:00,25.4,18.3,30.19,West,267,3.0,4.0,74,0.00,,,0.00,Wunderground v.1.15,2013-01-02 21:07:00,
2013-01-02 16:08:00,25.4,18.3,30.19,WNW,282,3.0,4.0,74,0.00,,,0.00,Wunderground v.1.15,2013-01-02 21:08:00,
2013-01-02 16:09:00,25.4,18.3,30.19,West,275,3.0,4.0,74,0.00,,,0.00,Wunderground v.1.15,2013-01-02 21:09:00,
2013-01-02 16:13:00,25.3,18.5,30.20,WSW,252,4.0,5.0,75,0.00,,,0.00,Wunderground v.1.15,2013-01-02 21:13:00,
2013-01-02 16:14:00,25.4,18.6,30.19,West,269,4.0,5.0,75,0.00,,,0.00,Wunderground v.1.15,2013-01-02 21:14:00,
2013-01-02 16:15:00,25.4,18.6,30.19,West,275,4.0,6.0,75,0.00,,,0.00,Wunderground v.1.15,2013-01-02 21:15:00,
2013-01-02 16:18:00,25.3,18.5,30.19,West,277,4.0,6.0,75,0.00,,,0.00,Wunderground v.1.15,2013-01-02 21:18:00,
2013-01-02 16:19:00,25.3,18.5,30.19,West,273,4.0,6.0,75,0.00,,,0.00,Wunderground v.1.15,2013-01-02 21:19:00,
2013-01-02 16:22:00,25.4,18.3,30.19,West,269,4.0,5.0,74,0.00,,,0.00,Wunderground v.1.15,2013-01-02 21:22:00,
2013-01-02 16:24:00,25.3,18.5,30.19,West,266,4.0,6.0,75,0.00,,,0.00,Wunderground v.1.15,2013-01-02 21:24:00,
2013-01-02 16:25:00,25.3,18.5,30.19,West,270,4.0,6.0,75,0.00,,,0.00,Wunderground v.1.15,2013-01-02 21:25:00,
2013-01-02 16:29:00,25.4,18.6,30.19,West,270,4.0,6.0,75,0.00,,,0.00,Wunderground v.1.15,2013-01-02 21:29:00,
2013-01-02 16:30:00,25.3,18.5,30.19,West,259,4.0,4.0,75,0.00,,,0.00,Wunderground v.1.15,2013-01-02 21:30:00,
2013-01-02 16:31:00,25.3,18.5,30.19,West,273,4.0,4.0,75,0.00,,,0.00,Wunderground v.1.15,2013-01-02 21:31:00,
2013-01-02 16:35:00,25.4,18.6,30.19,West,263,3.0,6.0,75,0.00,,,0.00,Wunderground v.1.15,2013-01-02 21:35:00,
2013-01-02 16:36:00,25.3,18.5,30.19,West,275,3.0,6.0,75,0.00,,,0.00,Wunderground v.1.15,2013-01-02 21:36:00,
2013-01-02 16:39:00,25.4,18.9,30.19,West,273,3.0,6.0,76,0.00,,,0.00,Wunderground v.1.15,2013-01-02 21:39:00,
2013-01-02 16:40:00,25.4,18.9,30.20,West,277,3.0,3.0,76,0.00,,,0.00,Wunderground v.1.15,2013-01-02 21:40:00,
2013-01-02 16:41:00,25.4,18.9,30.20,West,264,3.0,4.0,76,0.00,,,0.00,Wunderground v.1.15,2013-01-02 21:41:00,
2013-01-02 16:43:00,25.4,18.9,30.20,West,270,4.0,4.0,76,0.00,,,0.00,Wunderground v.1.15,2013-01-02 21:43:00,
2013-01-02 16:44:00,25.4,18.9,30.20,West,274,3.0,4.0,76,0.00,,,0.00,Wunderground v.1.15,2013-01-02 21:44:00,
2013-01-02 16:48:00,25.4,18.9,30.20,West,277,4.0,6.0,76,0.00,,,0.00,Wunderground v.1.15,2013-01-02 21:48:00,
2013-01-02 16:49:00,25.4,18.9,30.20,West,269,4.0,6.0,76,0.00,,,0.00,Wunderground v.1.15,2013-01-02 21:49:00,
2013-01-02 16:50:00,25.4,18.9,30.20,West,271,4.0,4.0,76,0.00,,,0.00,Wunderground v.1.15,2013-01-02 21:50:00,
2013-01-02 16:55:00,25.4,18.9,30.20,West,262,4.0,7.0,76,0.00,,,0.00,Wunderground v.1.15,2013-01-02 21:55:00,
2013-01-02 16:56:00,25.4,18.9,30.20,WNW,282,5.0,7.0,76,0.00,,,0.00,Wunderground v.1.15,2013-01-02 21:56:00,
2013-01-02 16:58:00,25.4,18.9,30.20,West,277,5.0,7.0,76,0.00,,,0.00,Wunderground v.1.15,2013-01-02 21:58:00,
2013-01-02 17:01:00,25.4,18.6,30.20,West,273,5.0,5.0,75,0.00,,,0.00,Wunderground v.1.15,2013-01-02 22:01:00,
2013-01-02 17:03:00,25.4,18.6,30.20,West,271,5.0,5.0,75,0.00,,,0.00,Wunderground v.1.15,2013-01-02 22:03:00,
2013-01-02 17:04:00,25.4,18.6,30.20,West,277,5.0,5.0,75,0.00,,,0.00,Wunderground v.1.15,2013-01-02 22:04:00,
2013-01-02 17:06:00,25.4,18.9,30.20,West,267,5.0,5.0,76,0.00,,,0.00,Wunderground v.1.15,2013-01-02 22:06:00,
2013-01-02 17:10:00,25.4,18.9,30.20,West,263,4.0,4.0,76,0.00,,,0.00,Wunderground v.1.15,2013-01-02 22:10:00,
2013-01-02 17:12:00,25.4,18.9,30.20,West,271,4.0,4.0,76,0.00,,,0.00,Wunderground v.1.15,2013-01-02 22:12:00,
2013-01-02 17:15:00,25.4,18.9,30.20,West,271,3.0,4.0,76,0.00,,,0.00,Wunderground v.1.15,2013-01-02 22:15:00,
2013-01-02 17:16:00,25.4,18.9,30.20,West,274,3.0,4.0,76,0.00,,,0.00,Wunderground v.1.15,2013-01-02 22:16:00,
2013-01-02 17:18:00,25.4,18.9,30.20,WNW,282,3.0,4.0,76,0.00,,,0.00,Wunderground v.1.15,2013-01-02 22:18:00,
2013-01-02 17:23:00,25.4,18.9,30.20,West,279,3.0,4.0,76,0.00,,,0.00,Wunderground v.1.15,2013-01-02 22:23:00,
2013-01-02 17:27:00,25.4,18.9,30.20,West,280,3.0,4.0,76,0.00,,,0.00,Wunderground v.1.15,2013-01-02 22:27:00,
2013-01-02 17:29:00,25.4,18.9,30.20,West,280,2.0,4.0,76,0.00,,,0.00,Wunderground v.1.15,2013-01-02 22:29:00,
2013-01-02 17:30:00,25.4,18.9,30.21,West,280,2.0,2.0,76,0.00,,,0.00,Wunderground v.1.15,2013-01-02 22:30:00,
2013-01-02 17:34:00,25.4,18.9,30.21,West,263,2.0,4.0,76,0.00,,,0.00,Wunderground v.1.15,2013-01-02 22:34:00,
2013-01-02 17:35:00,25.4,19.2,30.21,WSW,238,3.0,7.0,77,0.00,,,0.00,Wunderground v.1.15,2013-01-02 22:35:00,
2013-01-02 17:39:00,25.4,19.2,30.21,West,272,4.0,8.0,77,0.00,,,0.00,Wunderground v.1.15,2013-01-02 22:39:00,
2013-01-02 17:40:00,25.4,19.2,30.21,WSW,256,5.0,7.0,77,0.00,,,0.00,Wunderground v.1.15,2013-01-02 22:40:00,
2013-01-02 17:45:00,25.4,19.2,30.21,WNW,284,7.0,7.0,77,0.00,,,0.00,Wunderground v.1.15,2013-01-02 22:45:00,
2013-01-02 17:48:00,25.4,19.2,30.21,West,275,7.0,8.0,77,0.00,,,0.00,Wunderground v.1.15,2013-01-02 22:48:00,
2013-01-02 17:49:00,25.4,19.2,30.21,West,278,6.0,6.0,77,0.00,,,0.00,Wunderground v.1.15,2013-01-02 22:49:00,
2013-01-02 17:52:00,25.4,19.2,30.21,West,275,6.0,6.0,77,0.00,,,0.00,Wunderground v.1.15,2013-01-02 22:52:00,
2013-01-02 17:53:00,25.4,19.5,30.21,WSW,249,5.0,6.0,78,0.00,,,0.00,Wunderground v.1.15,2013-01-02 22:53:00,
2013-01-02 17:56:00,25.4,19.2,30.21,West,265,5.0,8.0,77,0.00,,,0.00,Wunderground v.1.15,2013-01-02 22:56:00,
2013-01-02 17:57:00,25.4,19.2,30.22,West,277,5.0,8.0,77,0.00,,,0.00,Wunderground v.1.15,2013-01-02 22:57:00,
2013-01-02 18:01:00,25.4,19.5,30.21,West,281,6.0,6.0,78,0.00,,,0.00,Wunderground v.1.15,2013-01-02 23:01:00,
2013-01-02 18:02:00,25.4,19.5,30.21,West,270,6.0,6.0,78,0.00,,,0.00,Wunderground v.1.15,2013-01-02 23:02:00,
2013-01-02 18:04:00,25.4,19.5,30.21,West,274,7.0,7.0,78,0.00,,,0.00,Wunderground v.1.15,2013-01-02 23:04:00,
2013-01-02 18:06:00,25.4,19.5,30.21,West,277,7.0,7.0,78,0.00,,,0.00,Wunderground v.1.15,2013-01-02 23:06:00,
2013-01-02 18:09:00,25.5,19.6,30.21,West,271,5.0,7.0,78,0.00,,,0.00,Wunderground v.1.15,2013-01-02 23:09:00,
2013-01-02 18:10:00,25.4,19.5,30.21,WNW,282,5.0,5.0,78,0.00,,,0.00,Wunderground v.1.15,2013-01-02 23:10:00,
2013-01-02 18:11:00,25.5,19.6,30.21,West,279,5.0,5.0,78,0.00,,,0.00,Wunderground v.1.15,2013-01-02 23:11:00,
2013-01-02 18:12:00,25.5,19.6,30.21,West,265,5.0,5.0,78,0.00,,,0.00,Wunderground v.1.15,2013-01-02 23:12:00,
2013-01-02 18:15:00,25.5,19.6,30.21,WSW,255,4.0,5.0,78,0.00,,,0.00,Wunderground v.1.15,2013-01-02 23:15:00,
2013-01-02 18:17:00,25.5,19.6,30.21,West,269,4.0,5.0,78,0.00,,,0.00,Wunderground v.1.15,2013-01-02 23:17:00,
2013-01-02 18:19:00,25.5,19.6,30.21,West,269,4.0,5.0,78,0.00,,,0.00,Wunderground v.1.15,2013-01-02 23:19:00,
2013-01-02 18:21:00,25.6,19.7,30.21,West,268,4.0,6.0,78,0.00,,,0.00,Wunderground v.1.15,2013-01-02 23:21:00,
2013-01-02 18:22:00,25.6,20.0,30.22,West,267,4.0,6.0,79,0.00,,,0.00,Wunderground v.1.15,2013-01-02 23:22:00,
2013-01-02 18:23:00,25.6,19.7,30.21,WSW,250,4.0,6.0,78,0.00,,,0.00,Wunderground v.1.15,2013-01-02 23:23:00,
2013-01-02 18:24:00,25.6,20.0,30.21,West,268,4.0,6.0,79,0.00,,,0.00,Wunderground v.1.15,2013-01-02 23:24:00,
2013-01-02 18:26:00,25.6,20.0,30.21,West,268,4.0,6.0,79,0.00,,,0.00,Wunderground v.1.15,2013-01-02 23:26:00,
2013-01-02 18:28:00,25.6,19.7,30.21,SW,234,4.0,6.0,78,0.00,,,0.00,Wunderground v.1.15,2013-01-02 23:28:00,
2013-01-02 18:29:00,25.6,19.7,30.22,WSW,242,4.0,6.0,78,0.00,,,0.00,Wunderground v.1.15,2013-01-02 23:29:00,
2013-01-02 18:30:00,25.6,19.7,30.21,SW,214,4.0,4.0,78,0.00,,,0.00,Wunderground v.1.15,2013-01-02 23:30:00,
2013-01-02 18:33:00,25.5,19.3,30.21,West,259,4.0,4.0,77,0.00,,,0.00,Wunderground v.1.15,2013-01-02 23:33:00,
2013-01-02 18:36:00,25.6,19.7,30.21,SW,227,3.0,4.0,78,0.00,,,0.00,Wunderground v.1.15,2013-01-02 23:36:00,
2013-01-02 18:38:00,25.7,20.1,30.21,West,263,3.0,5.0,79,0.00,,,0.00,Wunderground v.1.15,2013-01-02 23:38:00,
2013-01-02 18:41:00,25.7,19.8,30.21,WSW,256,3.0,4.0,78,0.00,,,0.00,Wunderground v.1.15,2013-01-02 23:41:00,
2013-01-02 18:42:00,25.7,19.8,30.22,WSW,244,3.0,4.0,78,0.00,,,0.00,Wunderground v.1.15,2013-01-02 23:42:00,
2013-01-02 18:43:00,25.7,19.8,30.22,WSW,253,3.0,4.0,78,0.00,,,0.00,Wunderground v.1.15,2013-01-02 23:43:00,
2013-01-02 18:47:00,25.7,19.5,30.22,SSW,206,3.0,5.0,77,0.00,,,0.00,Wunderground v.1.15,2013-01-02 23:47:00,
2013-01-02 18:49:00,25.7,19.5,30.22,SW,228,3.0,5.0,77,0.00,,,0.00,Wunderground v.1.15,2013-01-02 23:49:00,
2013-01-02 18:50:00,25.7,19.5,30.22,SW,223,3.0,4.0,77,0.00,,,0.00,Wunderground v.1.15,2013-01-02 23:50:00,
2013-01-02 18:51:00,25.7,19.5,30.22,SW,218,3.0,4.0,77,0.00,,,0.00,Wunderground v.1.15,2013-01-02 23:51:00,
2013-01-02 18:56:00,25.7,19.8,30.22,SW,232,4.0,5.0,78,0.00,,,0.00,Wunderground v.1.15,2013-01-02 23:56:00,
2013-01-02 18:57:00,25.7,19.8,30.22,SW,218,4.0,5.0,78,0.00,,,0.00,Wunderground v.1.15,2013-01-02 23:57:00,
2013-01-02 18:59:00,25.7,19.8,30.22,SW,220,4.0,5.0,78,0.00,,,0.00,Wunderground v.1.15,2013-01-02 23:59:00,
2013-01-02 19:01:00,25.7,19.8,30.22,SW,218,4.0,5.0,78,0.00,,,0.00,Wunderground v.1.15,2013-01-03 00:01:00,
2013-01-02 19:03:00,25.7,19.8,30.22,SSW,201,4.0,6.0,78,0.00,,,0.00,Wunderground v.1.15,2013-01-03 00:03:00,
2013-01-02 19:05:00,25.7,19.8,30.22,SSW,210,4.0,6.0,78,0.00,,,0.00,Wunderground v.1.15,2013-01-03 00:05:00,
2013-01-02 19:07:00,25.7,20.1,30.22,SW,220,5.0,6.0,79,0.00,,,0.00,Wunderground v.1.15,2013-01-03 00:07:00,
2013-01-02 19:08:00,25.8,19.9,30.22,South,183,5.0,6.0,78,0.00,,,0.00,Wunderground v.1.15,2013-01-03 00:08:00,
2013-01-02 19:11:00,25.8,20.2,30.22,SSW,210,5.0,6.0,79,0.00,,,0.00,Wunderground v.1.15,2013-01-03 00:11:00,
2013-01-02 19:12:00,25.8,20.2,30.22,SW,224,5.0,6.0,79,0.00,,,0.00,Wunderground v.1.15,2013-01-03 00:12:00,
2013-01-02 19:13:00,25.8,19.9,30.22,SSE,155,5.0,6.0,78,0.00,,,0.00,Wunderground v.1.15,2013-01-03 00:13:00,
2013-01-02 19:14:00,25.8,20.2,30.22,SSW,205,5.0,6.0,79,0.00,,,0.00,Wunderground v.1.15,2013-01-03 00:14:00,
2013-01-02 19:17:00,25.8,20.2,30.22,SW,216,5.0,6.0,79,0.00,,,0.00,Wunderground v.1.15,2013-01-03 00:17:00,
2013-01-02 19:19:00,25.8,20.2,30.23,SW,228,5.0,7.0,79,0.00,,,0.00,Wunderground v.1.15,2013-01-03 00:19:00,
2013-01-02 19:20:00,25.8,20.2,30.23,SW,216,5.0,9.0,79,0.00,,,0.00,Wunderground v.1.15,2013-01-03 00:20:00,
2013-01-02 19:23:00,25.8,20.2,30.23,SW,231,6.0,9.0,79,0.00,,,0.00,Wunderground v.1.15,2013-01-03 00:23:00,
2013-01-02 19:24:00,25.8,19.9,30.23,SW,223,6.0,9.0,78,0.00,,,0.00,Wunderground v.1.15,2013-01-03 00:24:00,
2013-01-02 19:25:00,25.8,19.9,30.23,SW,217,6.0,9.0,78,0.00,,,0.00,Wunderground v.1.15,2013-01-03 00:25:00,
2013-01-02 19:28:00,25.7,20.1,30.22,SW,219,6.0,9.0,79,0.00,,,0.00,Wunderground v.1.15,2013-01-03 00:28:00,
2013-01-02 19:29:00,25.7,19.8,30.23,SSW,201,6.0,9.0,78,0.00,,,0.00,Wunderground v.1.15,2013-01-03 00:29:00,
2013-01-02 19:30:00,25.7,19.8,30.23,SSW,210,6.0,7.0,78,0.00,,,0.00,Wunderground v.1.15,2013-01-03 00:30:00,
2013-01-02 19:32:00,25.7,20.1,30.23,SW,216,6.0,7.0,79,0.00,,,0.00,Wunderground v.1.15,2013-01-03 00:32:00,
2013-01-02 19:33:00,25.7,20.1,30.23,SSW,213,6.0,8.0,79,0.00,,,0.00,Wunderground v.1.15,2013-01-03 00:33:00,
2013-01-02 19:36:00,25.7,20.1,30.22,South,176,7.0,8.0,79,0.00,,,0.00,Wunderground v.1.15,2013-01-03 00:36:00,
2013-01-02 19:39:00,25.6,20.3,30.22,South,182,7.0,9.0,80,0.00,,,0.00,Wunderground v.1.15,2013-01-03 00:39:00,
2013-01-02 19:41:00,25.6,20.3,30.22,SSW,195,7.0,7.0,80,0.00,,,0.00,Wunderground v.1.15,2013-01-03 00:41:00,
2013-01-02 19:42:00,25.5,20.2,30.23,South,187,7.0,7.0,80,0.00,,,0.00,Wunderground v.1.15,2013-01-03 00:42:00,
2013-01-02 19:45:00,25.4,20.1,30.23,SSW,192,8.0,8.0,80,0.00,,,0.00,Wunderground v.1.15,2013-01-03 00:45:00,
2013-01-02 19:46:00,25.4,20.4,30.23,SSW,196,8.0,8.0,81,0.00,,,0.00,Wunderground v.1.15,2013-01-03 00:46:00,
2013-01-02 19:50:00,25.2,20.2,30.23,SSW,209,7.0,9.0,81,0.00,,,0.00,Wunderground v.1.15,2013-01-03 00:50:00,
2013-01-02 19:51:00,25.2,20.2,30.23,SSW,206,7.0,9.0,81,0.00,,,0.00,Wunderground v.1.15,2013-01-03 00:51:00,
2013-01-02 19:52:00,25.1,20.4,30.23,SSW,204,8.0,9.0,82,0.00,,,0.00,Wunderground v.1.15,2013-01-03 00:52:00,
2013-01-02 19:54:00,25.1,20.4,30.23,SSW,203,8.0,9.0,82,0.00,,,0.00,Wunderground v.1.15,2013-01-03 00:54:00,
2013-01-02 19:55:00,25.1,20.4,30.23,SSE,150,7.0,9.0,82,0.00,,,0.00,Wunderground v.1.15,2013-01-03 00:55:00,
2013-01-02 19:59:00,25.0,20.3,30.23,SSE,161,7.0,9.0,82,0.00,,,0.00,Wunderground v.1.15,2013-01-03 00:59:00,
2013-01-02 20:00:00,25.0,20.3,30.23,SSW,195,7.0,7.0,82,0.00,,,0.00,Wunderground v.1.15,2013-01-03 01:00:00,
2013-01-02 20:01:00,25.0,20.3,30.23,South,185,7.0,7.0,82,0.00,,,0.00,Wunderground v.1.15,2013-01-03 01:01:00,
2013-01-02 20:04:00,24.9,20.2,30.23,SSE,154,7.0,8.0,82,0.00,,,0.00,Wunderground v.1.15,2013-01-03 01:04:00,
2013-01-02 20:06:00,24.8,20.1,30.23,SSW,201,8.0,10.0,82,0.00,,,0.00,Wunderground v.1.15,2013-01-03 01:06:00,
2013-01-02 20:07:00,24.8,20.1,30.23,SSW,201,8.0,10.0,82,0.00,,,0.00,Wunderground v.1.15,2013-01-03 01:07:00,
2013-01-02 20:08:00,24.7,20.0,30.23,SSW,210,8.0,10.0,82,0.00,,,0.00,Wunderground v.1.15,2013-01-03 01:08:00,
2013-01-02 20:11:00,24.6,19.9,30.23,South,185,8.0,8.0,82,0.00,,,0.00,Wunderground v.1.15,2013-01-03 01:11:00,
2013-01-02 20:13:00,24.6,20.2,30.23,South,179,8.0,8.0,83,0.00,,,0.00,Wunderground v.1.15,2013-01-03 01:13:00,
2013-01-02 20:14:00,24.6,20.2,30.23,South,183,7.0,8.0,83,0.00,,,0.00,Wunderground v.1.15,2013-01-03 01:14:00,
2013-01-02 20:16:00,24.5,19.8,30.23,SSW,196,7.0,10.0,82,0.00,,,0.00,Wunderground v.1.15,2013-01-03 01:16:00,
2013-01-02 20:19:00,24.4,20.0,30.23,SW,218,7.0,10.0,83,0.00,,,0.00,Wunderground v.1.15,2013-01-03 01:19:00,
2013-01-02 20:20:00,24.4,19.7,30.23,South,187,7.0,8.0,82,0.00,,,0.00,Wunderground v.1.15,2013-01-03 01:20:00,
2013-01-02 20:22:00,24.4,20.0,30.23,SSW,204,7.0,8.0,83,0.00,,,0.00,Wunderground v.1.15,2013-01-03 01:22:00,
2013-01-02 20:24:00,24.4,20.0,30.23,South,186,7.0,8.0,83,0.00,,,0.00,Wunderground v.1.15,2013-01-03 01:24:00,
2013-01-02 20:25:00,24.4,20.0,30.23,SSW,210,7.0,8.0,83,0.00,,,0.00,Wunderground v.1.15,2013-01-03 01:25:00,
2013-01-02 20:29:00,24.4,20.3,30.23,SW,225,7.0,8.0,84,0.00,,,0.00,Wunderground v.1.15,2013-01-03 01:29:00,
2013-01-02 20:30:00,24.4,20.3,30.22,SSW,192,7.0,7.0,84,0.00,,,0.00,Wunderground v.1.15,2013-01-03 01:30:00,
2013-01-02 20:32:00,24.4,20.0,30.22,SSW,194,6.0,7.0,83,0.00,,,0.00,Wunderground v.1.15,2013-01-03 01:32:00,
2013-01-02 20:34:00,24.3,19.9,30.22,SSW,198,6.0,7.0,83,0.00,,,0.00,Wunderground v.1.15,2013-01-03 01:34:00,
2013-01-02 20:37:00,24.3,20.2,30.22,SSW,201,6.0,7.0,84,0.00,,,0.00,Wunderground v.1.15,2013-01-03 01:37:00,
2013-01-02 20:38:00,24.3,20.2,30.22,SSW,207,6.0,7.0,84,0.00,,,0.00,Wunderground v.1.15,2013-01-03 01:38:00,
2013-01-02 20:39:00,24.3,20.2,30.22,South,191,6.0,7.0,84,0.00,,,0.00,Wunderground v.1.15,2013-01-03 01:39:00,
2013-01-02 20:42:00,24.2,19.8,30.22,SSW,194,6.0,10.0,83,0.00,,,0.00,Wunderground v.1.15,2013-01-03 01:42:00,
2013-01-02 20:44:00,24.2,19.8,30.22,South,190,6.0,10.0,83,0.00,,,0.00,Wunderground v.1.15,2013-01-03 01:44:00,
2013-01-02 20:46:00,24.2,19.8,30.22,SSW,210,7.0,10.0,83,0.00,,,0.00,Wunderground v.1.15,2013-01-03 01:46:00,
2013-01-02 20:47:00,24.2,20.1,30.22,South,182,7.0,10.0,84,0.00,,,0.00,Wunderground v.1.15,2013-01-03 01:47:00,
2013-01-02 20:49:00,24.2,20.1,30.22,SW,216,7.0,10.0,84,0.00,,,0.00,Wunderground v.1.15,2013-01-03 01:49:00,
2013-01-02 20:51:00,24.1,20.0,30.22,SSW,194,6.0,7.0,84,0.00,,,0.00,Wunderground v.1.15,2013-01-03 01:51:00,
2013-01-02 20:53:00,24.1,20.0,30.22,SSW,194,6.0,7.0,84,0.00,,,0.00,Wunderground v.1.15,2013-01-03 01:53:00,
2013-01-02 20:56:00,24.1,19.7,30.22,SW,216,6.0,7.0,83,0.00,,,0.00,Wunderground v.1.15,2013-01-03 01:56:00,
2013-01-02 20:59:00,24.0,19.6,30.21,SSW,210,6.0,7.0,83,0.00,,,0.00,Wunderground v.1.15,2013-01-03 01:59:00,
2013-01-02 21:00:00,24.0,19.9,30.21,SSW,193,6.0,7.0,84,0.00,,,0.00,Wunderground v.1.15,2013-01-03 02:00:00,
2013-01-02 21:02:00,24.0,19.9,30.21,SSW,196,6.0,7.0,84,0.00,,,0.00,Wunderground v.1.15,2013-01-03 02:02:00,
2013-01-02 21:05:00,24.0,19.9,30.21,South,186,6.0,7.0,84,0.00,,,0.00,Wunderground v.1.15,2013-01-03 02:05:00,
2013-01-02 21:07:00,24.0,19.9,30.21,SSE,154,6.0,9.0,84,0.00,,,0.00,Wunderground v.1.15,2013-01-03 02:07:00,
2013-01-02 21:10:00,24.0,19.9,30.21,SSW,194,6.0,6.0,84,0.00,,,0.00,Wunderground v.1.15,2013-01-03 02:10:00,
2013-01-02 21:12:00,24.0,19.9,30.21,SSW,209,6.0,6.0,84,0.00,,,0.00,Wunderground v.1.15,2013-01-03 02:12:00,
2013-01-02 21:16:00,23.9,19.8,30.20,SSW,195,6.0,8.0,84,0.00,,,0.00,Wunderground v.1.15,2013-01-03 02:16:00,
2013-01-02 21:17:00,23.9,19.5,30.21,SSE,168,6.0,8.0,83,0.00,,,0.00,Wunderground v.1.15,2013-01-03 02:17:00,
2013-01-02 21:18:00,23.9,19.8,30.21,SW,215,6.0,8.0,84,0.00,,,0.00,Wunderground v.1.15,2013-01-03 02:18:00,
2013-01-02 21:22:00,23.9,19.8,30.21,SSW,207,6.0,6.0,84,0.00,,,0.00,Wunderground v.1.15,2013-01-03 02:22:00,
2013-01-02 21:23:00,23.9,19.8,30.21,SE,135,6.0,7.0,84,0.00,,,0.00,Wunderground v.1.15,2013-01-03 02:23:00,
2013-01-02 21:25:00,23.8,19.7,30.21,South,185,6.0,7.0,84,0.00,,,0.00,Wunderground v.1.15,2013-01-03 02:25:00,
2013-01-02 21:26:00,23.8,19.7,30.21,SW,218,6.0,7.0,84,0.00,,,0.00,Wunderground v.1.15,2013-01-03 02:26:00,
2013-01-02 21:30:00,23.8,19.7,30.21,SSW,199,6.0,6.0,84,0.00,,,0.00,Wunderground v.1.15,2013-01-03 02:30:00,
2013-01-02 21:31:00,23.9,19.8,30.21,SSW,209,6.0,6.0,84,0.00,,,0.00,Wunderground v.1.15,2013-01-03 02:31:00,
2013-01-02 21:32:00,23.9,20.0,30.21,SSW,210,6.0,8.0,85,0.00,,,0.00,Wunderground v.1.15,2013-01-03 02:32:00,
2013-01-02 21:33:00,23.9,19.8,30.21,South,185,6.0,8.0,84,0.00,,,0.00,Wunderground v.1.15,2013-01-03 02:33:00,
2013-01-02 21:37:00,23.9,19.8,30.21,South,180,6.0,8.0,84,0.00,,,0.00,Wunderground v.1.15,2013-01-03 02:37:00,
2013-01-02 21:39:00,23.9,19.8,30.21,SSE,150,6.0,8.0,84,0.00,,,0.00,Wunderground v.1.15,2013-01-03 02:39:00,
2013-01-02 21:42:00,23.9,19.8,30.21,South,190,6.0,8.0,84,0.00,,,0.00,Wunderground v.1.15,2013-01-03 02:42:00,
2013-01-02 21:44:00,23.9,19.8,30.21,SSW,194,6.0,8.0,84,0.00,,,0.00,Wunderground v.1.15,2013-01-03 02:44:00,
2013-01-02 21:45:00,23.9,19.8,30.21,South,173,6.0,8.0,84,0.00,,,0.00,Wunderground v.1.15,2013-01-03 02:45:00,
2013-01-02 21:46:00,23.9,20.0,30.21,South,187,6.0,8.0,85,0.00,,,0.00,Wunderground v.1.15,2013-01-03 02:46:00,
2013-01-02 21:49:00,23.9,19.8,30.21,SSW,204,6.0,8.0,84,0.00,,,0.00,Wunderground v.1.15,2013-01-03 02:49:00,
2013-01-02 21:50:00,23.9,19.8,30.21,South,184,6.0,6.0,84,0.00,,,0.00,Wunderground v.1.15,2013-01-03 02:50:00,
2013-01-02 21:52:00,23.9,20.0,30.21,SE,132,6.0,6.0,85,0.00,,,0.00,Wunderground v.1.15,2013-01-03 02:52:00,
2013-01-02 21:53:00,23.9,20.0,30.21,SSW,207,6.0,6.0,85,0.00,,,0.00,Wunderground v.1.15,2013-01-03 02:53:00,
2013-01-02 21:55:00,23.9,20.0,30.21,South,183,6.0,6.0,85,0.00,,,0.00,Wunderground v.1.15,2013-01-03 02:55:00,
2013-01-02 21:58:00,23.9,19.8,30.21,South,183,6.0,9.0,84,0.00,,,0.00,Wunderground v.1.15,2013-01-03 02:58:00,
2013-01-02 22:02:00,23.9,19.8,30.21,SSW,199,7.0,9.0,84,0.00,,,0.00,Wunderground v.1.15,2013-01-03 03:02:00,
2013-01-02 22:03:00,23.9,20.0,30.21,SSW,199,7.0,9.0,85,0.00,,,0.00,Wunderground v.1.15,2013-01-03 03:03:00,
2013-01-02 22:04:00,23.9,20.0,30.21,South,185,7.0,9.0,85,0.00,,,0.00,Wunderground v.1.15,2013-01-03 03:04:00,
2013-01-02 22:07:00,23.9,20.0,30.21,SW,217,7.0,9.0,85,0.00,,,0.00,Wunderground v.1.15,2013-01-03 03:07:00,
2013-01-02 22:08:00,23.9,20.0,30.20,SSE,152,7.0,9.0,85,0.00,,,0.00,Wunderground v.1.15,2013-01-03 03:08:00,
2013-01-02 22:11:00,23.9,19.8,30.20,SSE,168,7.0,8.0,84,0.00,,,0.00,Wunderground v.1.15,2013-01-03 03:11:00,
2013-01-02 22:12:00,23.8,19.7,30.20,SSW,203,7.0,8.0,84,0.00,,,0.00,Wunderground v.1.15,2013-01-03 03:12:00,
2013-01-02 22:13:00,23.8,19.7,30.20,SW,230,7.0,8.0,84,0.00,,,0.00,Wunderground v.1.15,2013-01-03 03:13:00,
2013-01-02 22:17:00,23.8,19.7,30.20,SSW,192,7.0,8.0,84,0.00,,,0.00,Wunderground v.1.15,2013-01-03 03:17:00,
2013-01-02 22:19:00,23.8,19.7,30.20,South,178,7.0,8.0,84,0.00,,,0.00,Wunderground v.1.15,2013-01-03 03:19:00,
2013-01-02 22:24:00,23.8,19.7,30.20,SSW,207,7.0,8.0,84,0.00,,,0.00,Wunderground v.1.15,2013-01-03 03:24:00,
2013-01-02 22:25:00,23.8,19.7,30.20,SSW,199,7.0,8.0,84,0.00,,,0.00,Wunderground v.1.15,2013-01-03 03:25:00,
2013-01-02 22:30:00,23.8,19.9,30.20,SW,218,7.0,7.0,85,0.00,,,0.00,Wunderground v.1.15,2013-01-03 03:30:00,
2013-01-02 22:31:00,23.8,19.9,30.20,SSE,151,7.0,7.0,85,0.00,,,0.00,Wunderground v.1.15,2013-01-03 03:31:00,
2013-01-02 22:32:00,23.9,20.0,30.20,South,189,7.0,7.0,85,0.00,,,0.00,Wunderground v.1.15,2013-01-03 03:32:00,
2013-01-02 22:35:00,23.8,19.9,30.20,SSE,168,6.0,7.0,85,0.00,,,0.00,Wunderground v.1.15,2013-01-03 03:35:00,
2013-01-02 22:37:00,23.8,19.9,30.20,South,180,6.0,7.0,85,0.00,,,0.00,Wunderground v.1.15,2013-01-03 03:37:00,
2013-01-02 22:38:00,23.8,19.9,30.20,SSE,153,6.0,8.0,85,0.00,,,0.00,Wunderground v.1.15,2013-01-03 03:38:00,
2013-01-02 22:39:00,23.8,19.7,30.20,SSE,157,6.0,8.0,84,0.00,,,0.00,Wunderground v.1.15,2013-01-03 03:39:00,
2013-01-02 22:44:00,23.7,19.6,30.20,SSW,194,6.0,8.0,84,0.00,,,0.00,Wunderground v.1.15,2013-01-03 03:44:00,
2013-01-02 22:47:00,23.7,19.9,30.20,SSW,201,6.0,8.0,85,0.00,,,0.00,Wunderground v.1.15,2013-01-03 03:47:00,
2013-01-02 22:49:00,23.8,19.9,30.20,South,175,6.0,8.0,85,0.00,,,0.00,Wunderground v.1.15,2013-01-03 03:49:00,
2013-01-02 22:50:00,23.8,19.9,30.20,South,182,7.0,7.0,85,0.00,,,0.00,Wunderground v.1.15,2013-01-03 03:50:00,
2013-01-02 22:52:00,23.8,19.9,30.20,SSW,203,7.0,7.0,85,0.00,,,0.00,Wunderground v.1.15,2013-01-03 03:52:00,
2013-01-02 22:54:00,23.7,19.9,30.20,SE,142,7.0,7.0,85,0.00,,,0.00,Wunderground v.1.15,2013-01-03 03:54:00,
2013-01-02 22:56:00,23.7,19.9,30.20,SSE,149,7.0,7.0,85,0.00,,,0.00,Wunderground v.1.15,2013-01-03 03:56:00,
2013-01-02 22:58:00,23.8,19.9,30.20,South,187,7.0,7.0,85,0.00,,,0.00,Wunderground v.1.15,2013-01-03 03:58:00,
2013-01-02 22:59:00,23.8,19.9,30.20,SSE,168,7.0,7.0,85,0.00,,,0.00,Wunderground v.1.15,2013-01-03 03:59:00,
2013-01-02 23:01:00,23.8,19.9,30.20,SSW,209,7.0,7.0,85,0.00,,,0.00,Wunderground v.1.15,2013-01-03 04:01:00,
2013-01-02 23:03:00,23.8,19.9,30.20,SSW,196,7.0,7.0,85,0.00,,,0.00,Wunderground v.1.15,2013-01-03 04:03:00,
2013-01-02 23:08:00,23.8,19.9,30.20,SSE,168,7.0,7.0,85,0.00,,,0.00,Wunderground v.1.15,2013-01-03 04:08:00,
2013-01-02 23:10:00,23.7,19.6,30.20,South,173,7.0,7.0,84,0.00,,,0.00,Wunderground v.1.15,2013-01-03 04:10:00,
2013-01-02 23:12:00,23.8,19.9,30.20,SW,223,7.0,9.0,85,0.00,,,0.00,Wunderground v.1.15,2013-01-03 04:12:00,
2013-01-02 23:13:00,23.8,19.9,30.20,SSW,198,7.0,9.0,85,0.00,,,0.00,Wunderground v.1.15,2013-01-03 04:13:00,
2013-01-02 23:17:00,23.8,19.9,30.20,SSW,201,7.0,9.0,85,0.00,,,0.00,Wunderground v.1.15,2013-01-03 04:17:00,
2013-01-02 23:18:00,23.8,19.9,30.20,South,187,7.0,9.0,85,0.00,,,0.00,Wunderground v.1.15,2013-01-03 04:18:00,
2013-01-02 23:22:00,23.8,19.9,30.20,SSW,193,6.0,8.0,85,0.00,,,0.00,Wunderground v.1.15,2013-01-03 04:22:00,
2013-01-02 23:24:00,23.8,19.9,30.20,SSE,165,6.0,8.0,85,0.00,,,0.00,Wunderground v.1.15,2013-01-03 04:24:00,
2013-01-02 23:26:00,23.7,19.9,30.20,SW,214,6.0,8.0,85,0.00,,,0.00,Wunderground v.1.15,2013-01-03 04:26:00,
2013-01-02 23:28:00,23.7,19.9,30.20,SSW,206,6.0,8.0,85,0.00,,,0.00,Wunderground v.1.15,2013-01-03 04:28:00,
2013-01-02 23:29:00,23.8,19.9,30.20,South,189,6.0,8.0,85,0.00,,,0.00,Wunderground v.1.15,2013-01-03 04:29:00,
2013-01-02 23:31:00,23.8,19.9,30.20,SW,218,7.0,8.0,85,0.00,,,0.00,Wunderground v.1.15,2013-01-03 04:31:00,
2013-01-02 23:35:00,23.7,19.9,30.20,South,189,6.0,8.0,85,0.00,,,0.00,Wunderground v.1.15,2013-01-03 04:35:00,
2013-01-02 23:36:00,23.7,19.9,30.20,South,171,6.0,8.0,85,0.00,,,0.00,Wunderground v.1.15,2013-01-03 04:36:00,
2013-01-02 23:40:00,23.7,19.9,30.20,SSW,198,6.0,6.0,85,0.00,,,0.00,Wunderground v.1.15,2013-01-03 04:40:00,
2013-01-02 23:41:00,23.7,19.9,30.20,South,175,6.0,6.0,85,0.00,,,0.00,Wunderground v.1.15,2013-01-03 04:41:00,
2013-01-02 23:46:00,23.7,19.9,30.19,SSW,206,6.0,7.0,85,0.00,,,0.00,Wunderground v.1.15,2013-01-03 04:46:00,
2013-01-02 23:47:00,23.7,19.6,30.19,South,187,6.0,7.0,84,0.00,,,0.00,Wunderground v.1.15,2013-01-03 04:47:00,
2013-01-02 23:48:00,23.6,19.5,30.19,SSW,213,6.0,8.0,84,0.00,,,0.00,Wunderground v.1.15,2013-01-03 04:48:00,
2013-01-02 23:52:00,23.7,19.9,30.19,SSE,160,7.0,8.0,85,0.00,,,0.00,Wunderground v.1.15,2013-01-03 04:52:00,
2013-01-02 23:54:00,23.6,19.8,30.19,South,178,8.0,8.0,85,0.00,,,0.00,Wunderground v.1.15,2013-01-03 04:54:00,
2013-01-02 23:55:00,23.6,19.8,30.19,South,185,8.0,8.0,85,0.00,,,0.00,Wunderground v.1.15,2013-01-03 04:55:00,
2013-01-02 23:59:00,23.5,19.7,30.19,SSW,207,7.0,8.0,85,0.00,,,0.00,Wunderground v.1.15,2013-01-03 04:59:00,